Powrót do katalogu

STARLINK-35479

AktywnyŁącznośćVLEO
NORAD 66326·PAYLOAD·🇺🇸 United States

Wystrzelony Nov 6, 2025 z Cape Canaveral Space Force Station

Loading…

Następne Przeloty (najbliższe 24 godziny)

TLE

ŚwieżeSource: CelesTrak SupGP

Epoka: Sep 14, 2026, 23:17 UTC

1 66326C 25253H   26257.97062500  .00003404  00000+0  12325-3 0  2574
2 66326  43.0005 223.6033 0001415 259.6988  37.8347 15.27590699    10

Śledź STARLINK-35479 w czasie rzeczywistym z AllMySat

Download on the App Store